TimeMDT,TemperatureF,Dew PointF,Humidity,Sea Level PressureIn,VisibilityMPH,Wind Direction,Wind SpeedMPH,Gust SpeedMPH,PrecipitationIn,Events,Conditions,WindDirDegrees,DateUTC
12:53 AM,53.6,39.2,58,30.01,10.0,NNW,6.9,-,N/A,,Partly Cloudy,330,2011-10-25 06:53:00
1:53 AM,53.1,37.9,57,29.94,10.0,NNW,18.4,-,N/A,,Mostly Cloudy,330,2011-10-25 07:53:00
2:53 AM,51.1,37.9,61,29.96,10.0,NE,4.6,-,N/A,,Mostly Cloudy,40,2011-10-25 08:53:00
3:53 AM,48.9,39.0,69,29.99,10.0,North,5.8,-,N/A,,Overcast,360,2011-10-25 09:53:00
6:53 AM,48.0,35.1,61,30.01,10.0,North,6.9,-,N/A,,Mostly Cloudy,350,2011-10-25 12:53:00
7:53 AM,45.0,33.1,63,30.03,10.0,North,9.2,-,N/A,,Mostly Cloudy,350,2011-10-25 13:53:00
8:53 AM,45.0,27.0,49,30.05,10.0,North,13.8,-,N/A,,Mostly Cloudy,350,2011-10-25 14:53:00
9:53 AM,45.0,25.0,46,30.06,10.0,North,13.8,-,N/A,,Mostly Cloudy,350,2011-10-25 15:53:00
10:53 AM,45.0,27.0,49,30.07,10.0,North,16.1,-,N/A,,Mostly Cloudy,350,2011-10-25 16:53:00
11:53 AM,46.0,28.0,50,30.07,10.0,North,11.5,-,N/A,,Overcast,350,2011-10-25 17:53:00
12:53 PM,50.0,28.9,44,30.07,10.0,North,9.2,-,N/A,,Mostly Cloudy,360,2011-10-25 18:53:00
1:53 PM,48.2,28.4,46,30.11,10.0,North,11.5,-,N/A,,Mostly Cloudy,350,2011-10-25 19:53:00
2:53 PM,50.0,23.0,35,30.04,10.0,North,6.9,-,N/A,,Mostly Cloudy,360,2011-10-25 20:53:00
3:53 PM,50.0,26.1,39,30.04,10.0,NNW,8.1,-,N/A,,Mostly Cloudy,340,2011-10-25 21:53:00
4:53 PM,50.0,24.1,36,30.04,10.0,NNW,10.4,-,N/A,,Mostly Cloudy,340,2011-10-25 22:53:00
7:53 PM,46.9,26.1,44,30.07,10.0,NW,9.2,-,N/A,,Mostly Cloudy,310,2011-10-26 01:53:00
8:53 PM,44.1,30.9,60,30.07,10.0,North,5.8,-,N/A,,Mostly Cloudy,350,2011-10-26 02:53:00
9:53 PM,45.0,28.9,53,30.07,10.0,NNW,10.4,-,N/A,,Scattered Clouds,340,2011-10-26 03:53:00
10:53 PM,39.9,30.0,68,30.11,10.0,North,6.9,-,N/A,,Mostly Cloudy,360,2011-10-26 04:53:00
11:53 PM,41.0,28.9,62,30.12,10.0,North,10.4,-,N/A,,Mostly Cloudy,350,2011-10-26 05:53:00